GFSMA_925_temp_021.txt.gz
Temp
22 23 23 23 23 23 23 23 23 24 23 23 23 23 23 23 22 23 22 22 21 21 20 20 20 20 20 19 19 19 19 20 19 19 19 19 20 19 19 19 19 19 19
23 23 23 23 23 23 23 23 23 23 23 23 23 23 23 23 23 22 22 22 22 21 21 20 20 20 20 20 19 19 19 19 19 20 19 19 19 19 20 20 19 19 19
23 23 23 23 23 23 23 23 23 23 23 22 23 23 23 24 23 22 22 22 22 22 21 21 21 20 20 20 20 19 20 20 19 19 20 20 19 19 19 19 20 20 19
23 23 23 23 23 23 23 23 23 23 22 23 22 23 23 23 23 22 22 22 22 23 22 21 21 21 21 20 20 20 20 20 20 20 20 20 20 20 19 19 19 19 19
23 23 23 23 23 22 23 23 23 22 22 22 23 22 22 22 22 23 22 22 22 22 22 21 21 21 21 20 20 20 20 20 20 20 20 20 20 20 20 20 20 19 19
24 24 23 24 23 22 22 22 22 21 22 22 23 22 22 22 22 22 22 23 22 21 22 21 21 21 21 20 20 21 20 20 20 20 20 20 20 20 20 20 20 20 19
25 24 23 24 23 22 22 22 21 21 22 21 22 23 22 22 22 22 22 22 22 22 21 21 21 21 21 20 20 20 20 20 20 20 20 20 20 20 20 20 20 19 19
25 24 24 23 23 22 22 22 22 22 22 21 23 23 25 24 23 22 22 22 21 22 22 21 20 20 20 20 20 20 20 20 20 20 20 20 20 20 20 20 20 20 19
25 25 25 23 23 22 22 22 22 22 23 21 22 23 24 25 24 22 21 21 21 22 21 21 21 20 20 20 20 20 21 21 20 20 20 20 19 19 19 19 19 19 19
25 25 24 24 23 22 22 21 22 22 22 23 21 21 21 22 25 24 22 22 21 21 21 21 21 21 20 20 21 21 20 20 20 20 20 20 20 20 20 20 20 19 19
25 25 24 24 23 23 22 21 22 22 21 22 23 21 21 21 21 24 25 23 22 22 21 21 21 21 21 20 20 21 21 20 20 20 20 20 20 20 20 20 19 19 19
23 24 24 24 24 23 23 22 22 22 22 22 22 22 23 23 23 23 24 23 24 23 22 22 21 21 21 21 21 21 21 21 21 20 20 20 20 19 19 19 19 19 19
23 23 24 24 23 24 23 22 23 22 22 21 22 22 22 22 22 22 23 23 23 22 22 22 22 21 21 21 21 22 21 21 21 21 20 20 20 20 19 19 19 19 19
24 23 24 24 24 24 24 23 22 22 22 21 22 21 21 21 21 21 23 23 23 23 22 23 21 21 21 21 21 22 21 21 21 20 20 20 20 20 20 20 19 19 19
24 23 24 24 24 24 24 23 22 22 22 22 21 21 21 21 21 21 21 22 23 24 24 23 23 22 22 22 22 21 21 21 21 21 21 21 20 20 20 20 20 19 19
24 23 23 23 24 24 24 23 22 22 22 21 21 20 21 21 20 20 21 21 21 23 24 23 22 22 21 21 21 22 21 21 21 21 20 20 20 20 20 20 20 20 20
24 23 24 24 23 23 24 23 23 21 22 21 22 20 20 20 21 21 20 20 21 21 23 23 21 21 22 21 20 20 20 20 20 20 20 20 19 19 19 19 19 19 19
24 24 24 24 23 22 23 23 23 22 22 21 21 20 20 20 19 20 20 20 21 20 22 21 22 21 21 20 20 20 20 20 20 20 20 19 19 18 18 18 19 18 18
23 23 23 23 23 22 23 23 23 22 22 22 21 21 22 20 19 20 20 20 20 20 20 21 22 21 20 20 20 19 19 19 19 19 19 18 18 18 18 18 18 18 18
22 23 23 23 23 22 22 24 23 22 21 22 22 21 20 20 20 20 19 19 19 19 19 20 21 21 20 20 19 20 21 20 19 19 19 19 18 18 18 18 18 18 17
22 23 23 23 23 23 23 22 22 22 21 21 21 20 20 22 22 21 20 19 19 19 20 20 21 21 21 21 21 21 20 20 19 18 18 18 18 18 18 17 17 17 17
22 22 22 23 23 23 23 24 25 22 21 21 21 20 20 22 22 21 21 20 20 19 20 21 21 21 21 20 20 20 20 20 20 17 18 19 18 18 18 18 17 16 16
22 22 22 22 23 23 23 25 25 23 22 21 21 20 20 20 22 21 20 20 20 20 20 19 20 20 20 19 18 17 18 18 19 19 16 18 18 18 18 17 16 16 16
22 22 22 22 23 23 23 26 25 24 22 21 21 20 20 20 20 20 19 19 18 19 20 19 19 19 19 18 18 18 17 16 16 16 15 17 18 17 17 16 16 15 15
23 22 22 22 22 23 23 24 25 22 22 21 20 20 20 20 21 21 19 19 19 19 19 19 18 19 19 18 17 16 17 16 19 19 16 16 17 16 16 16 16 15 15
23 23 22 22 22 23 22 23 23 22 21 20 20 19 19 21 20 20 19 19 19 19 18 18 18 18 18 17 17 16 17 18 19 18 16 16 17 16 17 17 15 15 15

GFSMA_925_temp_024.txt.gz
Temp
24 24 24 25 25 25 26 24 24 24 23 24 25 25 26 25 25 26 25 22 21 21 21 20 20 20 19 19 19 19 20 20 19 20 20 19 19 19 20 20 20 19 20
24 25 25 25 25 25 25 23 23 24 23 25 25 25 26 25 24 25 25 23 22 22 21 20 20 20 20 20 20 19 19 19 20 20 20 20 19 20 20 20 19 19 20
23 23 25 25 25 23 23 23 23 25 24 25 24 25 26 25 25 25 25 25 23 22 21 21 21 20 20 20 20 19 19 20 20 19 20 20 20 20 19 19 19 19 19
23 23 24 24 25 23 24 24 24 24 26 26 25 25 25 25 25 25 25 25 25 25 22 21 21 21 21 20 20 20 20 20 20 20 20 20 20 20 20 20 19 19 19
23 23 23 24 24 24 23 24 23 24 25 25 26 25 25 25 25 25 24 25 24 25 25 23 21 21 21 21 20 20 20 20 20 20 20 20 20 20 20 20 20 20 20
23 23 25 24 24 25 24 23 23 24 25 25 26 25 25 25 25 25 25 25 24 24 25 24 23 22 21 20 20 20 20 20 20 20 20 20 20 20 20 20 20 20 20
24 23 25 24 24 24 23 23 23 23 25 24 25 26 25 25 25 25 26 25 24 25 24 24 24 23 22 21 21 20 20 20 20 20 20 20 20 20 20 20 20 20 19
24 24 24 24 24 24 23 23 23 25 25 25 26 27 28 26 26 26 25 25 24 25 24 23 23 22 23 22 21 21 21 20 20 20 20 20 20 20 19 19 19 19 20
24 24 25 24 23 24 23 23 23 24 26 24 24 26 27 28 27 25 24 25 24 25 24 23 23 22 22 22 21 21 21 21 21 20 20 20 20 20 19 19 19 19 19
24 24 24 24 24 25 25 23 24 24 23 26 24 24 24 24 28 27 25 25 24 24 24 24 23 23 22 23 22 21 21 20 20 20 20 20 20 20 20 20 20 20 20
24 25 24 24 24 24 24 24 23 22 24 25 26 25 24 25 25 27 27 26 24 25 24 24 24 24 23 23 23 21 21 20 20 20 20 20 20 20 19 19 19 19 19
26 25 25 24 24 24 24 24 23 22 23 24 25 25 26 26 27 26 27 26 27 26 25 24 24 24 24 23 23 22 21 21 21 20 20 20 20 20 20 19 19 19 18
27 26 24 24 24 24 24 24 23 23 22 23 22 25 25 25 26 26 26 27 27 26 25 25 24 24 24 23 23 22 21 21 21 21 21 20 20 20 20 19 19 19 19
27 27 25 24 24 24 24 24 23 23 23 23 22 23 25 25 25 25 26 26 27 26 26 24 25 24 24 23 23 22 22 22 21 21 21 21 20 20 20 20 19 19 19
28 26 25 24 24 24 24 24 24 23 23 22 23 22 23 25 25 25 25 25 26 27 27 25 25 24 24 24 23 22 22 22 21 21 21 21 21 21 20 20 20 19 19
26 27 25 25 25 24 24 24 24 24 23 23 24 23 23 25 24 24 25 25 25 26 27 26 25 25 24 24 23 22 22 21 21 21 21 21 21 20 20 20 20 20 19
26 25 25 25 25 25 24 24 24 25 23 23 23 23 22 23 25 25 24 24 25 25 26 26 25 24 22 22 23 22 22 22 22 21 21 21 21 20 20 20 20 19 19
25 25 25 25 25 25 25 24 24 25 24 23 23 23 22 22 22 23 24 24 24 24 24 24 25 24 22 22 21 21 22 23 23 22 21 21 20 20 19 19 19 19 19
25 26 25 25 25 25 25 24 24 24 25 24 24 23 23 22 22 24 23 24 23 23 22 24 24 24 24 23 22 21 21 21 21 21 20 20 20 19 19 18 18 18 18
24 25 25 25 25 25 25 25 24 24 25 24 24 24 23 22 22 21 22 22 23 23 23 23 24 24 24 23 22 23 23 22 22 22 22 21 20 19 18 18 18 17 18
24 25 25 25 25 26 26 25 25 25 25 25 24 24 23 22 22 22 22 22 22 22 24 24 24 24 24 24 23 23 24 23 23 22 21 21 21 21 20 19 19 18 17
25 24 25 25 25 26 27 26 25 25 25 24 24 24 23 22 21 21 22 23 22 22 22 24 25 25 24 23 23 23 23 23 23 21 20 21 22 22 21 21 19 18 17
25 24 24 25 25 25 26 26 25 25 25 24 24 24 24 23 21 20 20 22 21 21 21 22 22 23 23 22 21 21 21 21 21 21 20 21 21 21 21 21 18 17 16
25 25 24 25 25 25 25 26 25 24 25 25 25 24 24 24 22 21 21 19 20 20 19 20 21 22 21 21 20 19 19 20 20 20 19 19 20 21 20 19 18 17 16
25 25 24 24 24 25 25 25 25 23 24 25 25 24 24 23 23 21 21 21 20 20 20 20 20 20 20 20 19 20 20 21 22 22 19 20 20 20 19 19 19 17 16
25 25 25 25 24 25 25 24 24 25 25 25 25 24 23 23 22 21 20 21 21 21 21 20 18 18 18 19 19 18 20 21 21 22 19 19 20 19 19 19 18 18 17

GFSMA_925_temp_030.txt.gz
Temp
26 26 25 25 23 24 24 24 25 25 24 26 26 27 27 26 24 23 23 23 23 23 22 20 20 20 19 19 20 20 19 19 20 20 20 19 19 19 19 20 19 19 19
25 26 26 24 25 25 24 24 25 26 24 25 26 26 27 26 25 24 24 23 23 22 21 20 20 20 19 20 20 19 20 20 20 19 19 19 19 20 19 19 20 19 19
25 26 25 25 25 25 25 25 25 25 25 26 26 26 26 26 26 25 24 24 23 22 21 21 20 20 20 20 20 20 20 20 20 19 20 20 19 19 19 19 19 19 19
25 25 26 25 26 25 26 26 25 25 25 26 27 27 26 26 26 26 25 24 23 22 22 21 21 21 20 20 20 20 20 20 20 20 20 20 20 20 19 20 20 20 20
25 25 26 26 25 25 25 26 26 26 27 27 27 27 27 27 26 26 26 25 24 24 23 22 21 21 21 20 20 20 20 20 20 20 20 20 20 20 20 20 20 20 20
25 25 25 26 25 25 25 25 25 26 27 27 28 27 27 27 27 27 26 25 25 23 23 23 22 22 21 20 20 20 20 20 20 20 20 20 20 20 20 20 20 19 19
25 24 24 25 25 25 25 25 25 25 26 26 27 27 26 27 27 27 27 26 25 24 23 23 22 22 22 21 21 20 20 20 20 20 20 20 20 20 20 20 20 20 20
25 24 24 25 25 25 24 24 24 25 26 26 26 26 24 26 27 27 27 26 26 26 25 24 23 23 21 21 21 21 21 20 19 20 20 20 20 20 20 20 20 20 20
25 25 24 25 25 25 25 24 24 25 25 26 26 25 23 24 26 26 26 26 26 26 25 24 23 23 22 22 22 22 21 21 21 21 20 20 20 20 20 20 20 20 20
25 25 25 25 25 25 24 25 25 25 25 26 26 26 26 25 23 24 26 26 26 25 25 24 24 23 23 23 22 22 22 21 21 21 21 21 20 20 20 20 20 20 20
26 26 25 25 25 25 25 25 25 25 25 26 26 27 26 26 26 25 24 25 25 26 25 26 24 24 23 23 23 23 22 21 21 21 21 21 20 20 20 20 20 20 20
26 26 26 25 25 25 24 25 25 25 25 25 26 27 27 26 27 26 24 25 25 26 26 26 25 24 24 24 23 23 22 22 21 21 21 20 20 20 20 20 19 19 19
26 26 26 26 25 25 25 25 24 24 25 25 25 26 27 27 28 27 27 26 26 26 26 26 26 25 25 24 23 23 23 22 22 21 21 21 21 21 20 20 20 19 19
28 28 27 26 25 25 25 25 25 25 24 24 24 25 26 27 27 27 27 27 25 26 27 27 26 26 25 25 24 23 23 22 22 22 21 21 21 21 20 20 20 20 19
29 29 28 26 26 25 25 25 25 25 25 24 24 24 25 26 27 27 27 27 27 24 23 26 26 26 26 25 24 23 23 23 22 22 22 22 21 21 21 20 20 19 19
29 29 28 26 25 25 25 25 25 25 25 25 24 24 24 26 26 27 27 27 27 27 24 26 26 26 25 25 24 24 23 23 23 22 22 22 22 21 21 20 20 20 19
28 29 27 26 26 25 25 25 25 25 25 25 25 25 24 25 26 27 27 27 27 27 26 27 26 25 25 25 24 23 23 23 23 23 23 22 22 22 21 21 21 20 19
28 27 28 27 26 25 25 25 25 25 26 25 25 25 24 24 25 26 26 26 26 26 26 26 26 24 25 25 24 23 22 23 23 23 23 22 22 22 21 21 21 21 20
27 27 27 27 26 26 25 25 25 25 25 26 25 24 25 24 24 25 25 26 26 26 26 25 25 25 24 24 24 23 23 22 23 23 22 22 22 22 22 22 21 21 20
26 27 26 27 26 26 26 25 25 25 25 25 26 24 24 24 24 24 25 25 25 25 25 25 24 25 25 25 23 23 22 22 22 22 22 22 22 22 22 22 21 21 20
26 26 26 26 26 26 26 25 25 25 25 25 25 26 25 24 24 24 24 24 25 24 25 24 24 24 25 25 23 23 23 23 23 23 22 22 22 22 22 22 21 20 20
26 26 26 26 26 26 26 26 26 26 25 25 25 25 25 25 24 24 24 24 24 24 24 24 23 23 24 25 25 24 24 23 22 23 22 22 22 22 22 22 21 20 19
26 26 26 26 26 26 26 26 26 26 26 25 25 25 25 25 25 24 24 24 23 23 24 24 24 25 25 25 25 24 23 23 22 22 22 21 22 21 22 22 20 19 18
27 26 26 26 26 26 26 27 27 26 26 26 25 25 25 26 25 24 24 23 23 23 23 23 24 25 25 24 24 24 23 22 21 21 21 20 21 21 21 21 20 20 19
27 26 26 26 26 26 26 26 27 26 26 26 26 26 25 25 25 25 23 22 22 22 23 23 23 23 23 23 22 22 21 20 20 21 21 21 21 21 21 21 20 19 19
27 26 26 26 26 26 26 26 26 26 26 26 26 26 26 25 25 25 24 23 22 22 21 22 22 22 22 22 22 21 21 20 21 21 21 21 21 21 21 21 21 19 20

GFSMA_925_temp_033.txt.gz
Temp
24 24 23 24 24 24 25 24 24 25 25 26 26 25 24 24 24 24 22 22 21 21 20 20 20 19 20 19 20 20 19 19 19 19 19 19 20 19 19 19 19 19 19
24 24 24 24 24 25 24 25 24 25 26 26 26 26 25 25 25 24 23 22 22 21 21 20 20 19 20 20 20 20 20 20 20 19 19 19 19 19 19 19 19 19 19
25 25 25 24 24 24 24 25 26 25 25 25 25 26 26 25 24 24 24 24 23 22 21 20 20 20 20 20 20 19 20 20 20 20 20 20 19 19 19 19 19 19 19
25 25 25 25 25 25 24 24 25 25 25 26 26 26 26 26 25 25 24 24 24 23 22 21 21 21 21 20 20 20 20 20 20 20 20 20 20 20 20 19 19 20 19
25 25 25 25 25 25 25 25 25 26 26 26 26 27 26 26 26 25 24 24 24 23 23 22 22 21 21 20 20 20 20 20 20 20 20 20 20 20 20 20 20 20 20
25 25 24 25 25 25 25 25 25 26 26 26 26 26 26 26 26 25 24 24 24 24 23 23 22 22 21 20 20 20 20 20 20 20 20 20 20 20 20 20 20 20 20
26 25 25 24 25 25 25 25 25 25 26 26 26 26 26 27 26 26 25 25 24 23 23 23 22 22 21 20 21 20 20 20 20 20 20 20 20 20 20 20 20 20 20
25 25 25 25 25 24 24 25 25 25 26 26 25 25 22 25 26 26 25 24 24 23 23 23 22 22 22 22 21 21 20 20 20 20 20 20 20 20 20 20 19 19 19
25 25 24 25 25 25 24 24 24 25 26 26 26 25 20 21 24 26 26 26 24 24 23 23 22 22 22 22 22 22 21 21 20 20 20 20 20 20 20 20 20 20 20
26 25 25 25 24 24 25 25 24 25 25 26 25 25 26 25 20 21 25 26 25 25 24 24 23 22 22 22 22 22 22 22 21 21 21 21 21 21 21 20 20 20 20
26 25 25 25 25 24 24 25 24 24 25 25 26 26 26 26 25 22 20 24 25 25 24 24 24 23 22 23 23 23 22 22 21 21 21 21 20 20 20 20 20 20 20
26 26 25 25 25 25 25 25 25 24 25 25 25 26 26 26 25 25 22 23 24 25 25 25 24 24 23 23 23 23 22 22 22 21 21 21 20 20 20 20 20 19 19
26 26 25 25 25 25 25 24 24 24 25 25 25 26 26 26 27 26 25 23 23 25 25 25 25 24 24 23 23 23 23 22 22 22 21 21 21 20 20 20 20 20 19
27 27 26 25 25 25 25 24 24 24 24 25 25 26 26 26 26 27 27 26 21 23 25 26 25 25 25 24 24 23 23 22 22 22 22 21 21 21 20 20 20 20 20
27 27 27 26 26 25 25 25 24 25 24 24 25 25 26 26 26 26 27 27 25 20 20 26 26 25 25 25 24 23 23 23 22 22 22 22 21 21 21 21 20 20 20
28 27 27 27 26 26 25 25 24 24 24 24 24 25 25 26 26 26 27 27 26 26 21 25 26 26 25 25 25 24 23 23 22 22 22 22 22 22 21 21 21 21 20
28 28 28 27 26 25 25 25 25 25 24 24 24 24 24 25 26 26 26 27 26 26 24 26 26 26 25 25 24 24 23 23 23 23 23 22 22 22 22 21 21 21 20
27 28 27 27 26 26 26 25 25 25 25 25 24 24 24 24 25 26 25 26 26 26 26 25 25 25 25 25 25 24 23 23 23 23 23 23 22 22 22 21 21 21 20
27 28 27 26 27 26 25 25 25 25 24 25 25 25 24 24 25 25 26 25 26 26 26 26 25 25 25 25 24 23 23 23 23 22 22 22 23 22 22 22 22 21 21
26 26 27 26 26 26 26 25 25 25 25 25 25 24 25 24 25 25 25 25 25 25 26 25 25 24 24 24 24 23 22 23 23 23 22 22 23 22 22 22 22 21 21
25 26 26 27 26 26 25 25 25 25 24 24 25 25 24 24 25 25 25 25 25 25 25 24 24 24 24 23 23 23 23 24 23 23 22 22 22 22 22 22 22 21 20
24 25 25 25 26 25 25 25 25 24 24 24 24 24 24 24 24 24 25 25 26 25 23 23 23 23 23 24 24 23 22 21 20 23 22 22 22 22 22 22 22 21 20
24 24 25 25 25 25 25 25 25 24 24 24 24 24 23 24 24 24 24 24 24 25 25 24 23 23 23 24 24 23 22 22 22 23 23 22 21 21 21 21 22 21 21
25 25 24 25 25 25 25 25 25 25 24 24 24 24 24 24 24 24 24 23 23 23 24 24 23 23 24 25 25 24 24 23 23 22 22 21 22 21 21 21 21 21 20
25 25 25 25 25 25 25 25 25 25 25 25 24 24 24 24 24 24 24 22 22 22 23 24 24 23 23 24 24 23 23 22 20 21 21 21 21 21 21 21 21 20 20
26 26 26 25 25 25 25 25 25 25 24 24 25 24 24 24 24 24 24 23 22 22 21 21 22 23 23 23 23 23 23 21 20 20 21 21 21 21 19 20 21 20 19

GFSMA_925_temp_036.txt.gz
Temp
24 23 24 24 24 24 24 24 25 24 24 25 25 25 24 24 23 23 22 21 21 20 20 19 19 19 19 19 19 19 19 19 19 19 19 19 19 19 19 19 19 19 19
24 24 24 24 24 24 24 24 24 25 25 25 25 25 25 24 23 23 22 22 21 21 20 20 19 19 19 20 20 20 19 19 19 19 19 19 19 19 19 19 20 19 19
25 24 24 24 24 24 24 24 25 25 25 26 24 24 24 24 24 24 23 23 22 21 20 20 20 20 19 19 20 20 20 20 20 20 19 20 19 19 19 19 19 19 19
25 24 24 24 24 24 24 24 24 25 26 25 25 24 25 25 24 24 24 23 22 21 21 21 20 20 20 20 20 20 20 20 19 19 20 19 20 19 19 19 19 19 19
25 25 24 24 24 24 25 25 25 25 25 25 25 25 25 24 24 24 23 23 23 23 22 22 21 21 21 20 20 20 20 20 20 20 20 20 20 20 20 19 20 20 19
25 25 25 25 24 25 25 25 25 26 26 26 26 26 25 25 25 24 24 23 23 23 23 22 22 21 21 20 20 20 20 20 20 20 20 20 20 20 20 19 19 19 19
26 24 24 24 24 25 25 25 25 25 24 25 25 25 25 24 25 25 24 24 23 23 23 23 22 22 21 21 21 20 20 20 20 20 20 20 20 20 19 19 19 19 19
26 25 24 24 24 24 25 24 25 25 25 25 25 24 20 24 24 24 24 24 23 23 23 22 22 22 22 22 21 21 20 20 20 20 20 20 20 19 19 19 19 19 19
26 25 25 25 24 24 24 24 25 25 25 25 25 25 20 20 22 23 23 24 23 23 23 23 22 22 22 22 22 22 21 21 20 20 20 20 19 19 19 19 19 20 20
25 25 25 25 24 24 24 24 24 25 25 25 25 25 25 25 19 21 23 23 23 23 23 22 23 22 22 22 22 22 22 22 22 21 21 21 20 20 20 20 20 20 19
25 25 25 25 24 24 24 24 24 24 24 25 25 25 25 24 24 21 20 23 23 23 24 23 23 23 23 22 22 22 22 22 21 21 21 21 20 20 20 20 19 19 19
25 25 25 25 24 24 24 24 24 24 24 24 25 25 26 25 24 23 20 21 23 24 24 24 23 23 23 23 22 23 22 22 22 21 21 21 20 20 20 20 19 19 19
25 25 25 25 24 24 24 24 24 24 24 24 25 25 25 26 26 25 24 22 22 24 24 24 24 23 24 23 23 23 22 22 22 22 22 21 21 21 20 20 20 19 19
26 26 25 25 25 25 24 24 24 24 24 24 24 25 25 26 26 25 26 24 20 21 23 25 25 24 24 24 23 23 23 22 22 22 22 22 21 21 21 21 21 20 20
26 27 26 26 25 25 25 24 24 24 24 24 24 25 25 25 26 26 25 26 25 19 18 24 25 25 24 24 24 23 23 23 22 22 22 22 22 21 21 21 21 20 20
26 26 26 26 26 25 25 25 24 24 24 24 24 25 25 26 26 26 25 26 26 25 19 25 25 26 25 24 24 24 23 23 23 22 22 22 22 22 22 22 21 21 20
26 26 27 26 26 25 25 25 25 24 24 24 24 24 24 25 26 26 26 25 25 25 24 26 25 25 25 25 25 24 24 23 23 22 22 22 22 22 22 22 21 21 20
26 26 26 27 26 26 25 25 25 24 24 24 24 24 24 24 25 26 26 25 25 26 25 25 26 25 25 25 25 24 24 23 23 23 23 22 22 22 22 22 22 21 21
26 26 26 26 26 26 26 25 25 25 25 24 24 24 24 24 24 24 25 25 25 25 25 25 26 25 25 25 24 24 24 23 23 23 23 23 22 22 22 22 22 21 21
25 26 26 26 26 26 26 26 26 25 25 25 24 24 24 24 24 24 24 25 25 25 24 24 24 25 25 24 24 24 23 23 23 23 23 22 22 22 22 22 22 21 21
24 25 25 26 26 26 25 25 25 25 25 25 24 24 24 24 24 25 24 25 25 24 24 23 22 23 23 23 22 23 22 23 23 23 23 23 22 22 22 22 21 21 21
23 24 25 25 25 25 25 26 25 25 24 24 24 24 24 24 24 24 24 24 25 24 23 22 22 21 23 24 24 22 22 21 20 23 23 23 22 22 22 22 22 21 21
23 23 23 24 24 24 24 25 25 24 24 23 23 24 24 24 24 24 24 23 24 24 24 24 22 23 23 23 23 22 21 21 22 23 23 22 23 23 22 22 22 21 21
23 23 23 23 23 24 24 24 25 24 23 23 23 23 23 23 23 24 23 22 23 23 23 24 23 23 23 23 23 24 24 23 22 23 22 21 23 22 23 22 22 21 21
24 24 23 23 23 23 24 24 24 24 24 23 23 23 23 23 23 23 23 22 22 23 23 23 24 24 24 23 23 22 21 20 19 20 22 21 21 22 22 21 21 21 21
24 24 24 24 24 23 24 24 24 24 23 23 23 23 23 23 23 23 23 22 22 22 21 21 21 22 23 23 23 22 22 21 21 19 21 20 21 21 19 21 21 20 20

GFSMA_925_temp_042.txt.gz
Temp
23 23 23 23 23 23 23 23 24 24 24 25 24 23 22 22 22 21 21 20 20 20 20 19 19 19 19 19 19 19 19 19 20 20 20 20 19 19 19 19 19 19 19
24 24 23 24 23 23 24 23 24 24 24 25 24 23 23 22 22 22 21 20 20 20 20 20 19 19 19 19 19 19 19 19 19 19 19 19 19 19 19 19 19 19 19
24 24 24 24 24 23 23 23 24 24 25 24 24 23 23 22 22 22 22 21 20 20 20 20 20 20 19 20 19 19 20 20 20 19 19 19 19 19 19 19 19 19 19
24 24 24 24 24 24 24 24 24 24 24 24 24 24 23 23 22 23 22 21 21 20 20 20 20 20 20 20 19 19 20 20 20 20 20 19 19 19 19 19 19 19 19
23 24 24 24 24 24 24 24 24 23 24 24 24 24 23 23 23 23 22 22 21 21 21 20 20 20 20 20 20 20 20 20 19 19 19 19 19 20 19 19 19 19 19
24 23 24 24 24 24 24 24 24 24 24 24 24 24 23 23 22 22 22 22 22 22 21 21 20 20 20 20 20 20 20 20 20 20 19 19 19 19 19 19 19 19 19
24 23 24 24 24 24 24 24 24 24 24 24 24 23 23 23 22 22 22 22 22 22 22 21 21 21 21 20 20 20 20 20 19 19 20 19 19 19 19 19 19 19 19
24 23 23 24 25 24 24 24 24 24 23 23 24 22 20 22 23 22 22 22 22 22 22 22 21 21 21 21 20 20 20 20 20 20 19 19 20 20 19 19 19 19 20
24 24 23 24 24 24 24 24 24 24 24 23 24 24 20 21 20 23 23 23 22 23 22 22 21 22 22 22 21 21 21 20 20 20 20 19 19 19 20 20 20 20 20
25 24 24 23 24 24 24 24 24 24 24 24 23 24 24 24 21 22 23 23 23 23 23 23 22 22 22 22 22 22 21 21 21 21 20 21 20 20 21 20 20 20 20
25 25 24 24 24 24 24 24 24 24 24 24 24 24 23 23 23 21 21 22 23 24 23 23 23 22 22 22 22 22 22 21 21 21 21 21 20 21 20 20 20 20 19
25 25 25 24 24 23 24 24 23 23 24 24 24 24 24 24 23 22 20 21 21 24 24 23 24 23 23 23 23 22 22 22 22 21 21 21 21 21 20 20 20 19 19
25 25 25 24 24 24 24 24 23 23 24 23 24 24 24 24 24 24 23 21 20 23 24 25 24 24 24 23 23 23 22 22 22 22 21 21 21 21 21 20 20 19 19
25 25 25 25 24 24 24 23 23 24 23 23 23 23 24 24 24 24 24 23 21 20 22 24 25 25 25 24 24 23 23 22 22 22 22 21 21 21 21 20 20 20 20
25 25 25 25 25 24 24 24 23 24 23 23 23 24 24 24 24 24 24 24 23 22 22 25 25 26 25 25 25 24 24 23 23 22 22 22 21 21 21 21 20 20 20
25 25 25 25 25 25 24 24 24 24 23 23 23 23 23 24 23 23 23 23 23 23 21 24 25 25 26 25 25 25 24 24 23 23 23 22 22 21 21 21 21 20 20
25 25 25 25 25 25 25 24 24 24 24 24 23 23 23 23 23 23 23 23 23 22 21 23 24 25 25 26 26 25 25 24 24 24 23 23 22 22 21 21 21 21 21
25 25 25 25 25 25 25 24 24 24 24 24 24 23 24 24 23 23 23 23 23 23 22 22 24 24 25 25 25 25 25 25 25 25 24 24 23 22 22 22 21 21 21
25 25 25 25 25 25 25 25 25 25 25 25 24 24 24 24 24 24 24 23 23 23 23 21 21 22 23 24 24 24 25 25 25 25 25 24 24 23 22 22 22 21 21
25 25 25 25 25 25 25 25 25 24 24 25 25 25 25 24 24 24 24 24 23 23 23 22 21 21 22 23 23 23 23 24 24 25 25 25 25 24 23 23 22 22 22
25 25 25 25 25 25 25 25 25 25 25 25 25 25 25 25 25 25 24 24 23 23 21 20 20 20 20 20 21 22 22 23 23 24 24 25 24 24 24 24 23 22 22
24 24 24 24 24 25 25 25 25 25 25 24 24 25 25 25 25 25 25 25 24 23 21 21 21 21 21 21 22 22 21 20 22 22 22 22 23 23 24 24 24 23 23
23 22 23 23 23 24 25 25 25 25 24 24 25 25 24 25 25 25 25 25 25 24 23 22 21 21 21 21 21 21 20 21 21 22 22 21 21 22 22 24 24 24 23
22 22 22 22 23 23 24 25 25 24 24 24 24 24 24 24 23 24 24 24 23 23 23 23 22 22 22 22 21 21 21 21 21 21 20 21 21 21 21 22 23 25 24
21 22 22 22 22 22 23 24 23 23 22 22 22 22 23 22 23 23 22 22 22 22 22 24 24 24 24 24 22 21 20 20 20 20 21 20 20 21 20 20 22 23 24
21 21 21 22 22 23 23 24 23 22 21 21 21 22 22 22 22 23 22 22 21 21 22 22 22 23 23 23 23 22 21 19 19 20 21 20 20 19 19 19 19 19 21

GFSMA_925_temp_045.txt.gz
Temp
23 23 23 22 22 23 23 23 23 23 23 23 22 22 22 21 21 22 22 20 20 20 20 20 20 20 19 19 19 20 20 20 20 19 19 19 19 19 19 19 19 19 19
23 23 23 23 23 23 23 23 24 23 23 23 22 22 22 22 21 21 22 21 20 20 19 20 20 19 19 19 20 19 19 19 19 19 19 20 20 19 19 19 19 19 19
23 23 23 23 23 23 23 24 24 24 23 23 22 22 22 22 21 21 21 21 21 20 20 20 20 20 20 20 20 20 20 20 20 20 20 19 19 19 20 19 19 19 19
23 24 24 23 23 23 23 23 23 24 24 24 23 23 22 22 21 21 21 21 21 21 21 20 20 20 20 20 19 19 19 20 20 20 20 19 20 19 19 19 19 19 19
23 24 24 24 24 23 22 23 24 23 24 24 24 23 22 22 22 22 21 21 21 21 21 20 20 20 20 20 20 20 19 19 20 20 19 19 19 19 19 19 19 19 19
24 24 24 24 24 23 23 23 24 24 23 23 24 24 23 22 22 22 22 22 21 21 21 20 21 21 20 20 19 20 20 19 19 19 19 19 19 19 19 19 19 19 19
24 24 24 24 24 23 24 23 23 22 22 22 24 24 23 23 22 22 22 22 22 22 21 21 21 21 21 21 20 20 20 20 19 19 19 19 19 19 19 19 19 19 19
24 24 23 24 24 23 24 24 24 23 22 22 24 25 26 24 23 23 22 22 22 22 22 21 21 20 20 21 20 21 20 20 20 20 20 19 20 19 19 19 19 19 20
24 24 23 24 24 24 24 24 23 24 24 22 24 25 26 26 25 23 22 23 22 22 22 22 21 21 20 21 21 21 21 21 20 20 20 20 20 20 20 20 20 20 20
25 24 24 24 23 23 24 23 24 24 24 24 23 23 24 23 27 27 24 23 23 23 23 22 22 22 21 21 21 22 22 22 21 21 21 21 21 21 20 20 20 20 19
25 24 24 24 24 23 23 24 24 23 24 24 24 23 23 23 23 26 27 26 24 24 23 23 23 23 22 21 21 21 22 22 22 21 21 21 21 21 21 21 20 20 19
24 24 24 24 24 23 23 23 24 23 23 23 23 23 24 25 26 25 26 25 25 25 24 23 23 23 23 22 22 23 22 22 22 22 21 21 21 21 20 20 20 20 20
24 24 25 24 23 24 24 23 23 23 23 23 23 24 23 24 24 24 25 26 26 25 24 24 24 23 23 23 23 23 23 22 22 22 22 22 21 21 21 20 20 20 19
24 24 25 25 25 24 24 24 22 22 22 22 22 23 23 23 23 23 24 25 27 26 25 24 24 24 24 24 24 25 23 23 23 22 22 22 22 21 21 20 20 20 20
24 23 25 25 25 25 24 24 23 22 23 22 22 22 22 23 23 23 23 23 25 27 28 26 25 25 25 25 25 25 25 24 24 23 23 22 22 22 21 21 21 20 20
25 24 25 25 25 25 24 23 23 22 22 23 23 22 22 23 23 22 23 23 23 24 26 25 25 24 25 25 26 25 25 25 25 24 23 23 23 22 22 22 21 21 20
26 25 25 25 25 25 24 23 23 23 22 22 22 22 22 22 23 23 23 23 23 23 24 26 24 23 24 25 25 25 25 25 24 25 25 24 23 23 22 22 22 21 21
26 25 25 25 25 25 24 23 23 23 23 23 23 22 22 23 22 22 23 22 23 23 23 24 24 24 23 23 25 25 25 24 24 24 26 25 24 24 23 23 22 22 22
26 25 24 24 24 25 24 24 24 23 23 23 23 23 23 23 22 23 23 23 23 22 22 22 23 24 23 23 23 23 23 23 24 25 25 25 25 25 24 24 23 22 22
25 25 24 24 24 24 24 24 23 23 23 23 23 23 23 23 23 23 23 23 23 23 23 23 23 24 24 24 22 23 24 24 24 24 24 24 24 25 25 25 24 23 23
24 25 24 23 23 24 24 23 23 23 23 23 23 23 23 24 24 24 24 24 23 23 23 24 25 25 25 25 24 25 24 24 24 23 23 23 24 23 22 24 25 24 24
23 23 23 23 23 24 25 25 25 24 23 23 23 23 23 24 25 26 25 25 24 23 23 24 25 26 25 24 24 24 24 24 25 25 24 23 23 23 24 23 23 25 25
22 22 22 23 23 23 25 25 25 24 24 24 23 24 24 25 24 23 23 25 25 25 23 23 23 23 24 24 23 23 23 23 23 24 23 23 23 23 23 23 23 23 23
22 22 22 22 23 23 24 25 25 25 23 24 24 24 24 24 24 24 23 24 24 23 22 22 22 23 22 23 22 22 22 21 21 21 22 21 23 23 23 23 22 22 21
22 22 23 22 22 23 24 25 25 22 23 23 23 23 23 23 23 23 22 23 23 23 24 23 23 23 22 22 22 21 20 20 20 21 23 22 23 23 23 23 23 22 21
23 23 23 23 23 23 23 25 24 22 23 23 23 22 22 22 22 22 22 22 23 23 24 24 23 22 22 23 23 21 21 19 20 20 22 22 21 21 21 23 22 22 21

GFSMA_925_temp_048.txt.gz
Temp
24 25 24 25 25 25 25 25 25 25 24 25 25 25 25 25 25 25 23 21 20 20 20 20 20 20 20 20 20 20 20 20 20 19 19 19 19 19 19 19 19 19 19
23 24 24 24 24 25 25 25 25 26 26 25 25 25 25 25 24 24 25 22 21 20 20 20 20 20 20 20 20 20 20 20 20 19 19 20 19 19 19 19 19 19 19
23 23 24 23 24 24 24 24 25 25 26 26 25 25 25 25 24 24 25 25 22 22 21 20 20 20 20 20 20 20 20 20 20 20 20 19 19 19 19 19 19 19 19
23 23 23 24 24 25 25 26 27 25 25 26 26 26 25 25 24 24 24 25 24 24 22 21 20 20 20 19 19 19 20 20 20 19 19 19 19 19 19 19 19 19 19
23 24 25 24 23 24 25 26 26 25 26 27 26 26 26 26 25 25 24 24 23 24 24 22 21 21 20 19 20 19 19 19 19 20 20 20 20 20 20 19 19 19 19
23 24 25 23 24 24 24 26 25 25 27 27 26 26 26 26 25 25 25 25 24 24 25 23 23 22 22 21 20 20 19 19 20 20 20 20 20 20 19 19 19 19 19
24 23 24 24 23 25 25 24 25 24 26 26 26 27 26 26 25 26 26 26 25 25 24 24 24 24 22 22 21 21 20 20 20 20 20 20 20 20 19 19 19 19 19
24 24 24 24 24 24 24 24 24 26 26 26 28 28 28 27 27 27 26 26 25 26 25 24 24 23 23 24 23 22 21 21 21 21 21 20 20 20 19 19 20 20 20
24 24 24 24 23 24 25 24 24 25 27 26 25 27 28 27 28 27 26 26 25 26 25 24 24 24 23 23 22 22 22 22 21 21 21 20 20 20 20 20 21 20 20
24 24 24 24 23 24 24 24 24 25 25 27 26 26 25 26 29 28 27 27 26 26 26 25 25 25 24 24 23 23 22 22 22 21 21 21 21 21 21 21 21 20 20
24 25 24 24 24 24 24 24 24 24 26 27 27 27 26 27 26 28 29 28 27 27 27 26 26 26 25 24 24 23 23 22 22 22 22 21 21 21 21 20 20 20 20
25 24 24 24 24 24 24 24 24 24 25 25 26 26 27 28 29 28 29 28 28 28 27 27 26 26 26 25 24 24 23 23 23 22 22 22 21 21 21 21 20 20 20
27 26 24 24 24 24 24 24 23 23 24 25 24 26 27 27 27 27 28 29 28 28 28 28 27 27 26 26 26 24 23 23 23 23 22 22 22 22 21 21 20 20 20
27 27 25 25 24 24 24 24 24 24 25 24 24 24 27 27 26 27 27 28 29 30 29 27 28 27 27 26 26 25 24 24 24 23 23 23 22 22 22 21 21 21 20
27 26 25 25 25 25 24 24 25 24 25 24 25 24 24 27 26 26 26 27 27 29 30 28 29 27 27 27 26 25 24 24 24 24 24 23 23 22 22 22 22 21 21
25 26 25 25 25 25 24 24 25 25 24 25 25 25 24 26 26 26 26 27 27 27 29 29 29 28 27 26 26 25 25 24 24 25 24 24 23 23 23 22 22 22 21
25 25 25 25 25 25 25 24 25 26 25 25 25 25 24 24 26 27 27 26 27 27 28 29 29 28 25 24 25 25 25 24 25 25 25 25 24 24 23 23 23 22 22
25 25 25 25 25 25 25 25 24 26 25 25 25 25 25 25 24 24 26 26 27 27 26 26 27 27 27 26 25 23 24 25 26 27 26 25 25 25 25 24 23 23 23
24 25 25 25 25 25 25 25 25 25 25 25 25 25 25 25 25 26 26 26 27 26 26 26 26 27 27 27 26 25 25 25 24 25 25 24 24 25 25 25 24 24 23
24 25 25 25 25 25 26 26 25 25 25 26 25 26 26 25 25 25 25 25 25 25 26 26 27 28 28 28 28 27 27 27 28 27 27 26 25 25 25 25 24 24 24
25 25 25 25 25 25 26 26 26 26 25 25 26 26 25 25 25 25 26 26 26 26 27 28 28 29 29 29 29 28 28 28 28 28 28 28 28 27 26 25 25 24 24
25 25 25 25 25 26 27 26 26 26 26 26 26 26 26 25 24 24 24 25 25 25 25 26 27 28 27 27 28 28 28 28 28 28 27 27 27 26 26 26 26 25 25
25 25 25 25 25 25 26 26 26 26 26 26 26 26 26 27 26 26 25 24 24 24 23 23 24 25 25 26 25 25 26 26 25 26 25 25 26 25 26 27 26 26 25
25 25 25 25 25 25 25 25 25 25 25 25 26 26 26 26 26 27 26 26 26 26 25 24 23 23 23 24 24 24 23 23 23 23 22 22 25 25 25 25 25 25 24
25 25 25 25 24 25 26 25 25 24 25 25 25 25 25 25 25 25 25 25 25 25 26 26 25 25 24 24 23 22 21 22 22 24 24 23 24 25 25 25 25 25 24
25 26 26 25 25 25 25 24 24 25 26 26 26 25 25 24 25 24 24 24 25 25 26 26 25 25 24 24 24 22 21 21 21 21 24 22 23 22 22 23 24 24 24